Home > Time Zones > World Clock > Weather > Peru > Lima > Past weeks

Flag for Peru Weather past 2 weeks in Lima, Lima, Peru

Now
68 °F

Overcast.


Feels Like: 68 °F
Forecast: 67 / 75 °F
Wind: 5 mph from Southwest

Location: Lima-Callao / Aerop. Internacional Jorgechavez

Current Time: Jul 2, 2015 at 8:22:55 AM

Latest Report: Jul 2, 2015 at 8:00 AM


Visibility: N/A

Pressure: 29.89 "Hg

Humidity: 78%

Dew point: 61 °F

Location of LimaLocation

Historic Weather in Lima — Graph

°F

Lima temperature yesterday

Maximum temperature yesterday: 77 °F (at 11:00 AM)
Minimum temperature yesterday: 66 °F (at 12:00 AM)
Average temperature yesterday: 70 °F

Past Weeks' High & Low Weather Summary

 TemperatureHumidityPressure
High77 °F (Jul 1, 11:00 AM)88% (Jun 21, 9:00 PM)30.01 "Hg (Jun 21, 9:00 PM)
Low66 °F (Jun 26, 3:00 AM)61% (Jun 18, 2:00 PM)29.80 "Hg (Jun 19, 2:00 PM)
Average70 °F76%29.90 "Hg
* Reported Jun 17 7:00 AM — Jul 2 7:00 AM, Lima, Weather by CustomWeather, © 2015

Note: Actual official high and low records may vary slightly from our data, if they occured in-between our weather recording intervals... More about our weather records

Advertising

Lima weather history for previous 24 hours

 ConditionsComfort  
Time TempWeatherWind HumidityBarometerVisibility
7:00 AM
Thu, Jul 2
66 °FOvercast.6 mph83%29.86 "HgN/A
6:00 AM68 °FOvercast.7 mph78%29.83 "HgN/A
5:00 AM66 °FOvercast.9 mph83%29.83 "HgN/A
4:00 AM68 °FOvercast.8 mph78%29.83 "HgN/A
3:00 AM68 °FOvercast.10 mph78%29.86 "HgN/A
2:00 AM68 °FMostly cloudy.14 mph83%29.86 "HgN/A
1:00 AM68 °FOvercast.14 mph83%29.89 "HgN/A
12:00 AM68 °FPassing clouds.13 mph83%29.92 "HgN/A
11:00 PM
Wed, Jul 1
68 °FPassing clouds.12 mph83%29.89 "HgN/A
10:00 PM68 °FOvercast.12 mph78%29.89 "HgN/A
9:00 PM68 °FPassing clouds.13 mph78%29.89 "HgN/A
8:00 PM68 °FPassing clouds.16 mph83%29.89 "HgN/A
7:00 PM68 °FPassing clouds.15 mph83%29.86 "HgN/A
6:00 PM68 °FPassing clouds.16 mph83%29.86 "HgN/A
5:00 PM70 °FScattered clouds.18 mph78%29.83 "HgN/A
4:00 PM72 °FPassing clouds.17 mph73%29.83 "HgN/A
3:00 PM73 °FSunny.17 mph69%29.83 "Hg10 mi
2:00 PM75 °FSunny.15 mph65%29.86 "Hg10 mi
1:00 PM77 °FSunny.13 mph61%29.86 "Hg10 mi
12:00 PM77 °FSunny.10 mph61%29.89 "Hg10 mi
11:00 AM77 °FSunny.7 mph61%29.92 "Hg10 mi
10:00 AM75 °FPartly sunny.7 mph65%29.95 "HgN/A
9:00 AM72 °FScattered clouds.7 mph73%29.95 "HgN/A
8:00 AM70 °FPartly sunny.5 mph73%29.95 "HgN/A
Weather by CustomWeather, © 2015

See weather overviewHow to use our weather pages